Location: Unspecified
(0.0000°N, 0.0000°E)
Time: 11:16:49
(UTC+01:00)

Daily predictions for brighter satellites

Satellite Brightness Start Highest point End
(mag) Time Altitude Azimuth Time Altitude Azimuth Time Altitude Azimuth
ARIANE 5 R/B 1.7 19:19:22 10° W 19:21:50 71° S 19:30:45 10° E
Cosmos 2219 Rocket 2.2 19:27:04 10° NNW 19:32:40 82° ENE 19:38:16 10° SSE
Meteor 1-27 Rocket 4.4 19:27:33 10° NNW 19:33:25 65° W 19:39:15 10° S
MOS 1 4.5 19:29:28 10° SSE 19:34:54 49° ENE 19:40:19 10° N
ARIANE 5 R/B 2.5 19:29:14 10° W 19:38:03 57° S 19:40:30 10° ESE
Thor Agena Rocket 3.7 19:34:04 10° NNE 19:38:57 52° ESE 19:43:51 10° S
Cosmos 2233 Rocket 4.1 19:34:08 10° N 19:40:19 84° W 19:46:30 10° S
Tiangong 1 1.9 19:41:15 10° S 19:43:07 21° SE 19:44:49 11° E
Cosmos 1371 Rocket 4.3 19:41:58 10° NNW 19:47:16 79° WSW 19:52:38 10° S
MONITOR-E 4.4 19:45:01 10° S 19:48:02 72° WSW 19:51:02 10° NNW
Cosmos 2237 Rocket 2.4 19:44:10 10° N 19:49:34 49° ENE 19:55:00 10° SSE
Cosmos 1782 Rocket 3.6 19:46:11 10° S 19:50:41 85° E 19:55:07 10° N
Sylda 4400 2.8 19:50:25 10° WNW 19:52:41 49° N 19:55:12 15° E
SL-16 R/B 3.6 19:50:53 10° NE 19:54:15 16° ENE 19:57:37 10° ESE
ARIANE 5 DEB (SYLDA) 3.0 19:46:17 10° W 19:54:36 59° S 19:57:06 14° ESE
Sich 1 Rocket 4.5 19:50:57 10° SSW 19:55:26 56° W 19:59:52 10° N
Cosmos 1464 Rocket 4.1 19:53:37 10° NNE 19:59:30 49° E 20:05:27 10° SSE
H-2A R/B 2.8 19:56:38 10° SSE 20:00:27 55° E 20:04:17 10° N
Cosmos 1378 Rocket 3.8 20:00:23 10° NNE 20:04:38 46° E 20:08:53 10° SSE
SPOT 3 Rocket 3.5 19:59:53 10° SSE 20:05:04 83° ENE 20:10:15 10° N
Cosmos 2251 Rocket 3.6 20:01:32 10° S 20:06:42 56° ESE 20:11:48 10° NNE
Lacrosse 5 2.8 20:03:14 10° N 20:07:26 27° ENE 20:09:53 18° ESE
ATLAS 2A CENTAUR R/B 3.3 19:58:14 10° NW 20:07:30 30° N 20:10:24 19° ENE
Ariane H10+ 1.0 20:05:17 10° W 20:07:36 54° S 20:09:28 20° ESE
ERS-2 2.6 20:04:30 10° SE 20:07:55 37° ENE 20:11:20 10° N
Cosmos 2263 Rocket 2.1 20:03:17 10° S 20:08:50 78° ESE 20:14:22 10° NNE
Okean 2 Rocket 3.0 20:06:02 10° S 20:10:27 85° E 20:14:49 10° N
Cosmos 1072 Rocket 4.5 20:04:57 10° N 20:11:14 75° E 20:17:37 10° S
ARIANE 5 DEB (SYLDA) 3.2 20:09:33 10° W 20:14:41 80° S 20:17:32 25° ESE
Meteosat 1 Rocket2 3.7 20:10:11 10° WSW 20:15:04 89° NNW 20:19:59 21° ENE
Cosmos 2346 Rocket 4.4 20:09:03 10° S 20:15:19 75° E 20:21:31 10° N
DELTA 2 R/B (1) 4.1 20:12:19 10° NNW 20:17:24 37° NE 20:19:45 26° E
Alouette 2 Rocket 3.9 20:12:25 10° S 20:18:16 82° W 20:22:17 10° N
Cosmos 2151 Rocket 3.8 20:15:06 10° SSE 20:19:28 47° E 20:23:24 12° NNE
CRYOSAT 2 4.3 20:15:44 10° N 20:20:34 89° E 20:25:26 10° S
Iridium 4 Rocket 3.1 20:16:43 10° N 20:21:00 75° W 20:25:09 10° S
GPS 2-18 Rocket1 3.6 20:17:48 10° NW 20:21:41 44° NNE 20:22:43 36° ENE
Cosmos 1452 Rocket 3.5 20:17:22 10° N 20:22:29 56° ENE 20:27:36 10° SSE
Abrixas rocket 2.2 20:22:19 10° NNW 20:25:15 53° NE 20:25:15 53° NE
Meteor 1-5 Rocket 4.2 20:22:23 10° S 20:27:58 63° E 20:33:43 10° NNE
Meteor 1-11 Rocket 3.8 20:23:55 10° S 20:29:25 77° W 20:34:57 10° N
Cosmos 2333 Rocket 4.3 20:25:05 10° NW 20:29:51 28° WSW 20:34:38 10° SSW
Okean 1 3.1 20:28:50 10° N 20:32:47 76° E 20:36:44 10° S
Meteor 1-18 Rocket 4.2 20:28:28 10° N 20:33:59 82° W 20:39:35 10° S
Cosmos 2034 Rocket 3.9 20:29:13 10° N 20:35:33 78° E 20:41:51 10° S
Cosmos 1891 Rocket 4.5 20:30:31 10° N 20:36:34 81° W 20:42:35 10° S
Cosmos 1536 2.9 20:36:51 10° S 20:40:51 77° W 20:43:11 24° N
Cosmos 1420 Rocket 3.9 20:37:03 10° N 20:42:19 73° ENE 20:47:38 10° SSE
ARIANE 5 DEB (SYLDA) 3.7 20:36:13 10° W 20:43:09 38° NNW 20:43:33 37° N
Lacrosse 5 rocket 3.7 20:45:24 10° WSW 20:48:07 18° WNW 20:50:39 10° NNW
ARIANE 44L R/B 3.9 20:46:33 10° SW 20:47:38 17° SW 20:47:38 17° SW
Envisat 2.9 20:44:59 10° SSE 20:50:01 64° ENE 20:55:01 10° N
Ariane H10 4.4 20:53:56 10° WSW 20:57:34 60° S 21:00:37 39° ESE
USA 229 DEB 3.5 21:02:07 10° SSW 21:08:41 68° ESE 21:08:41 68° ESE
USA 229 3.5 21:02:15 10° SSW 21:08:44 67° ESE 21:08:44 67° ESE
Aurora 2 Rocket 4.4 21:05:34 10° WNW 21:09:12 26° NNW 21:09:12 26° NNW
ARIANE 5 R/B 4.4 15:19:32 10° W 21:14:17 71° N 21:19:13 48° ENE
SL-16 R/B 3.6 21:33:02 10° NW 21:38:05 34° WSW 21:43:08 10° S
Lacrosse 5 4.2 21:46:25 10° WNW 21:49:17 20° WSW 21:49:17 20° WSW
